Location: *
(58.7167°N, 26.1833°E)
Time: 00:19:37
(UTC+00:00)

Cosmos 1626 - Pass Details

Date: 25 August 2019
Orbit: 492 x 497 km, 82.5° (Epoch: 21 September)

Event Time Altitude Azimuth Distance (km) Brightness Sun altitude
Rises 23:08:03 0° 341° (NNW) 2,593 6.7 -19.9°
Reaches altitude 10° 23:10:19 10° 331° (NNW) 1,704 5.5 -19.9°
Maximum altitude 23:13:38 31° 268° (W) 889 3.2 -19.8°
Enters shadow 23:13:40 31° 267° (W) 889 3.2 -19.8°
